sat.trackr.live / text

‹ back to catalog

STARLINK-11203 [DTC]

NORAD 60117 · 2024-118E

PAYLOAD ACTIVE UNKNOWN

§ Identity

Operator
Country
US
Launch date
2024-06-24
Launch site
AFWTR
Launch vehicle
Mass (kg)
RCS (m²)

Purposes: comms

External: N2YO · Heavens-Above · Gunter

§ Orbital elements

Epoch: 2026-05-25T03:59:30.136128Z

Period
91.74 min
Inclination
53.1579°
Eccentricity
0.0001119
Mean motion
15.69658919 rev/d
Perigee alt
359.1 km
Apogee alt
360.6 km
Semi-major
6,738.0 km
B*
9.0082e-5
RAAN
204.3465°
Arg perigee
116.6014°
Mean anomaly
243.5118°
Rev number
11,000

§ Raw data

STARLINK-11203 [DTC]1 60117U 24118E   26145.16632102  .00010315  00000+0  90082-4 0  99922 60117  53.1579 204.3465 0001119 116.6014 243.5118 15.69658919110007

JSON: /api/v1/satellites/60117 · /tle

For live sub-satellite position, see the globe view (requires WebGL).

§ Visibility from observer

Set your observer location to see the next 7 days of passes ≥ 10°. The values pass through the URL so the page stays shareable.

No JS? Fill the form by hand. The geolocation button needs JavaScript.